Location: Brookview Estates
(36.0476°N, 86.6931°W)
Time: 23:33:36
(UTC+00:00)

Cosmos 2219 Rocket - Pass Details

Date: 30 March 2020
Orbit: 829 x 845 km, 71.0° (Epoch: 27 May)

Event Time Altitude Azimuth Distance (km) Brightness Sun altitude
Rises 08:17:05 0° 350° (N) 3,383 5.7 -37.4°
Reaches altitude 10° 08:19:57 10° 3° (N) 2,444 5.0 -37.0°
Maximum altitude 08:24:35 26° 59° (ENE) 1,580 4.1 -36.3°
Drops below altitude 10° 08:29:11 10° 115° (ESE) 2,429 4.8 -35.5°
Sets 08:32:00 0° 128° (SE) 3,359 5.5 -35.1°
